Location: Newark
(52.3735°N, 16.9806°E)
Time: 20:01:30
(UTC+00:00)

N. Korean satellite - Pass Details

Date: 03 October 2021
Orbit: 450 x 495 km, 97.3° (Epoch: 25 October)

Event Time Altitude Azimuth Distance (km) Brightness Sun altitude
Rises 02:53:14 0° 33° (NNE) 2,556 11.1 -19.4°
Reaches altitude 10° 02:57:03 10° 75° (ENE) 1,680 10.6 -18.8°
Maximum altitude 02:57:47 11° 87° (E) 1,651 10.4 -18.7°
Drops below altitude 10° 02:58:30 10° 98° (E) 1,681 10.2 -18.6°
Sets 03:02:19 0° 140° (SE) 2,564 10.5 -18.1°
